[Date Prev][Date Next][Thread Prev][Thread Next] - [Date Index][Thread Index][Author Index]
2 Line ISS Keps 8-12
- Subject: [sarex] 2 Line ISS Keps 8-12
- From: "Dave Larsen PhD" <doc@xxxxxxxxxxx>
- Date: Tue, 12 Aug 2003 04:40:51 -0700
ISS
1 25544U 98067A 03223.90699074 .00017060 00000-0 20359-3 0 3242
2 25544 51.6317 99.7963 0007994 114.9526 76.7818 15.61135589269700
----
Via the sarex mailing list at AMSAT.ORG courtesy of AMSAT-NA.
To unsubscribe, send "unsubscribe sarex" to Majordomo@amsat.org
AMSAT Home